Terminal Aerodrome Forecast
Issued by NWS

Home | Current Version | Previous Version | Text Only | Print | Product List | Glossary On
Versions: 1 2 3 4 5 6 7 8 9 10 11 12 13 14 15 16 17 18 19 20 21 22 23 24 25 26 27 28 29 30 31 32 33 34 35 36 37 38 39 40 41 42 43 44 45 46 47 48 49 50
000
FTUS43 KMKX 271120
TAFUES
TAF
KUES 271120Z 2712/2812 VRB03KT 2SM -FZDZ BR OVC005
     FM271400 03004KT 3SM BR OVC008
     FM271600 04005KT 6SM BR OVC015
     FM272100 05005KT P6SM BKN020
     FM272200 05004KT P6SM SCT020
     FM280100 VRB03KT P6SM SCT100=

USA.gov is the U.S. government's official web portal to all federal, state and local government web resources and services.